Isola 2000, France 16 day weather forecast

Slopes altitude range 1800 m - 2610m

Number of lifts: 22 Pistes: 120km

In some cases the lift and piste totals shown are for the ski domain (e.g. Three Valleys) rather than individual resort (e.g. Courchevel)

Overview

The 16 day weather forecast is fully updated 4 times every day.

    • Sun 17 FEB 2019
    • Sun 17
    • 4C 12C
    • Mon 18 FEB 2019
    • Mon 18
    • 2C 11C
    • Tue 19 FEB 2019
    • Tue 19
    • 2C 11C
    • Wed 20 FEB 2019
    • Wed 20
    • 2C 11C
    • Thu 21 FEB 2019
    • Thu 21
    • 3C 12C
    • Fri 22 FEB 2019
    • Fri 22
    • 5C 14C
    • Sat 23 FEB 2019
    • Sat 23
    • 4C 12C
    • Sun 24 FEB 2019
    • Sun 24
    • 3C 14C
    • Mon 25 FEB 2019
    • Mon 25
    • 6C 16C
    • Tue 26 FEB 2019
    • Tue 26
    • 7C 15C
    • Wed 27 FEB 2019
    • Wed 27
    • 4C 12C
    • Thu 28 FEB 2019
    • Thu 28
    • 4C 14C
    • Fri 01 MAR 2019
    • Fri 01
    • 4C 13C
    • Sat 02 MAR 2019
    • Sat 02
    • 4C 12C
    • Sun 03 MAR 2019
    • Sun 03
    • 3C 11C
    • Mon 04 MAR 2019
    • Mon 04
    • 2C 11C

Date:

Time Type 0°C level Temp Chill Snow Cloud Speed Gust Dir Press
12:00 2704m 12°C 12_4 0cm 4% 4mph 4mph 1028mB
15:00 2674m 12°C 12_4 0cm 27% 4mph 3mph 1027mB
18:00 2691m 12°C 12_3 0cm 25% 3mph 3mph 1027mB
21:00 2608m 4°C 4_4 0cm 3% 4mph 5mph 1028mB
0:00 2419m 3°C 3_4 0cm 1% 4mph 5mph 1027mB
3:00 2356m 3°C 3_5 0cm 0% 5mph 5mph 1026mB
6:00 2339m 2°C 2_4 0cm 0% 4mph 5mph 1026mB
9:00 2392m 2°C 2_2 0cm 0% 2mph 3mph 1026mB
12:00 2315m 11°C 11_4 0cm 0% 4mph 4mph 1025mB
15:00 2314m 11°C 11_4 0cm 19% 4mph 3mph 1023mB
18:00 2284m 11°C 11_2 0cm 20% 2mph 2mph 1024mB
21:00 2251m 3°C 3_4 0cm 15% 4mph 5mph 1025mB
0:00 2205m 2°C 2_5 0cm 11% 5mph 5mph 1024mB
3:00 2159m 2°C 2_5 0cm 1% 5mph 5mph 1024mB
6:00 2100m 2°C 2_5 0cm 1% 5mph 5mph 1024mB
9:00 2148m 2°C 2_2 0cm 1% 2mph 1mph 1024mB
12:00 2093m 11°C 11_4 0cm 3% 4mph 3mph 1023mB
15:00 1985m 11°C 11_4 0cm 0% 4mph 4mph 1022mB
18:00 2036m 11°C 11_2 0cm 1% 2mph 2mph 1023mB
21:00 2030m 3°C 3_4 0cm 7% 4mph 5mph 1024mB
0:00 1965m 2°C 2_4 0cm 4% 4mph 5mph 1024mB
3:00 1969m 2°C 2_4 0cm 0% 4mph 5mph 1024mB
6:00 1942m 2°C 2_4 0cm 0% 4mph 5mph 1025mB
9:00 2016m 2°C 2_2 0cm 8% 2mph 1mph 1026mB
12:00 1973m 11°C 11_4 0cm 12% 4mph 3mph 1026mB
15:00 1986m 11°C 11_4 0cm 31% 4mph 4mph 1025mB
18:00 2172m 11°C 11_1 0cm 30% 1mph 2mph 1026mB
21:00 2152m 3°C 3_4 0cm 9% 4mph 4mph 1028mB
0:00 2118m 3°C 3_4 0cm 13% 4mph 5mph 1028mB
3:00 2131m 3°C 3_4 0cm 14% 4mph 5mph 1028mB
6:00 2168m 3°C 3_4 0cm 17% 4mph 4mph 1028mB
9:00 2281m 3°C 3_2 0cm 30% 2mph 2mph 1029mB
12:00 2355m 12°C 12_4 0cm 27% 4mph 2mph 1029mB
15:00 2440m 12°C 12_4 0cm 7% 4mph 4mph 1028mB
18:00 2536m 12°C 12_2 0cm 15% 2mph 2mph 1029mB
21:00 2574m 5°C 5_5 0cm 39% 5mph 5mph 1029mB
0:00 2770m 5°C 5_4 0cm 42% 4mph 5mph 1029mB
3:00 2765m 5°C 5_4 0cm 13% 4mph 5mph 1027mB
6:00 2898m 5°C 5_5 0cm 7% 5mph 5mph 1026mB
9:00 2932m 5°C 5_3 0cm 4% 3mph 5mph 1026mB
12:00 2977m 14°C 14_4 0cm 3% 4mph 5mph 1025mB
15:00 3026m 14°C 14_3 0cm 1% 3mph 3mph 1024mB
18:00 2777m 14°C 14_4 0cm 0% 4mph 4mph 1025mB
21:00 2325m 5°C 5_6 0cm 0% 6mph 7mph 1028mB
0:00 2199m 5°C 5_6 0cm 0% 6mph 7mph 1029mB
3:00 2082m 4°C 4_6 0cm 0% 6mph 6mph 1030mB
6:00 2016m 4°C 4_5 0cm 0% 5mph 6mph 1031mB
9:00 1998m 4°C 4_2 0cm 0% 2mph 2mph 1033mB
12:00 2032m 12°C 12_3 0cm 0% 3mph 4mph 1032mB
15:00 2153m 13°C 13_3 0cm 0% 3mph 4mph 1031mB
18:00 2278m 13°C 13_3 0cm 0% 3mph 4mph 1033mB
21:00 2114m 4°C 4_5 0cm 0% 5mph 6mph 1035mB
0:00 2025m 3°C 3_6 0cm 1% 6mph 7mph 1036mB
3:00 2122m 3°C 3_7 0cm 1% 7mph 10mph 1037mB
6:00 2210m 3°C 3_7 0cm 8% 7mph 8mph 1037mB
9:00 2190m 3°C 3_4 0cm 0% 4mph 7mph 1038mB
12:00 2213m 14°C 14_3 0cm 0% 3mph 6mph 1037mB
15:00 2326m 14°C 14_2 0cm 0% 2mph 4mph 1036mB
18:00 2694m 14°C 14_4 0cm 0% 4mph 4mph 1036mB
21:00 2870m 6°C 6_5 0cm 0% 5mph 5mph 1036mB
0:00 2941m 6°C 6_5 0cm 0% 5mph 5mph 1036mB
3:00 3064m 6°C 6_5 0cm 0% 5mph 6mph 1034mB
6:00 3189m 6°C 6_5 0cm 0% 5mph 6mph 1034mB
9:00 3207m 6°C 6_2 0cm 0% 2mph 2mph 1034mB
12:00 3188m 16°C 16_4 0cm 0% 4mph 2mph 1033mB
15:00 3221m 16°C 16_3 0cm 0% 3mph 4mph 1030mB
18:00 3332m 16°C 16_4 0cm 0% 4mph 4mph 1030mB
21:00 3406m 9°C 9_5 0cm 0% 5mph 6mph 1029mB
0:00 3415m 8°C 8_5 0cm 0% 5mph 5mph 1027mB
3:00 3371m 8°C 8_5 0cm 0% 5mph 6mph 1025mB
6:00 3236m 7°C 7_5 0cm 5% 5mph 6mph 1025mB
9:00 3094m 7°C 7_3 0cm 0% 3mph 5mph 1026mB
12:00 2999m 15°C 15_5 0cm 1% 5mph 5mph 1027mB
15:00 2926m 15°C 15_5 0cm 1% 5mph 3mph 1026mB
18:00 2957m 15°C 15_1 0cm 0% 1mph 1mph 1027mB
21:00 2997m 7°C 7_4 0cm 0% 4mph 4mph 1028mB
0:00 2966m 7°C 7_4 0cm 0% 4mph 5mph 1029mB
3:00 2906m 6°C 6_4 0cm 0% 4mph 4mph 1029mB
6:00 2868m 6°C 6_4 0cm 0% 4mph 5mph 1031mB
Afternoon 0mm 0 2948m 12°C 12_3 0cm 1% 3mph 4mph 1033mB
Morning 0mm 0 3000m 4°C 4_5 0cm 3% 5mph 6mph 1032mB
Afternoon 0mm 0 3139m 14°C 14_2 0cm 0% 2mph 3mph 1030mB
Morning 0mm 0 2951m 4°C 4_5 0cm 2% 5mph 5mph 1029mB
Afternoon 0mm 0 2831m 13°C 13_2 0cm 0% 2mph 2mph 1028mB
Morning 0mm 0 2659m 4°C 4_4 0cm 0% 4mph 5mph 1030mB
Afternoon 0.00520833mm 0 2494m 12°C 12_2 0cm 18% 2mph 3mph 1031mB
Morning 0mm 0 2094m 3°C 3_4 0cm 4% 4mph 4mph 1035mB
Afternoon 0mm 0 2345m 11°C 11_3 0cm 14% 3mph 4mph 1035mB
Morning 0mm 0 2023m 2°C 2_4 0cm 0% 4mph 4mph 1033mB
Afternoon 0mm 0 2347m 11°C 11_6 0cm 0% 6mph 8mph 1029mB
Morning 0mm 0 1994m 2°C 2_6 0cm 8% 6mph 8mph 1026mB

16 day outlook at a glance

Forecast issued: 2/17/2019 1:52:28 PM

Chat

Your comments and questions. In a resort? Let us know what it's like!


Characters left 250

For terms and conditions see Readers Comments on the Cookie and privacy policy page.